Year,Month,Day,Hour,Minute,Value (Times are PST for windgust in km/hr)
2018,06,04,00,00,4.80
2018,06,04,00,01,4.80
2018,06,04,00,02,4.80
2018,06,04,00,03,4.80
2018,06,04,00,04,4.80
2018,06,04,00,05,4.80
2018,06,04,00,06,4.80
2018,06,04,00,07,4.80
2018,06,04,00,08,4.80
2018,06,04,00,09,3.20
2018,06,04,00,12,4.80
2018,06,04,00,13,6.40
2018,06,04,00,14,4.80
2018,06,04,00,15,3.20
2018,06,04,00,16,3.20
2018,06,04,00,17,3.20
2018,06,04,00,18,3.20
2018,06,04,00,19,1.60
2018,06,04,02,00,6.40
2018,06,04,02,01,6.40
2018,06,04,02,02,4.80
2018,06,04,02,03,6.40
2018,06,04,02,04,6.40
2018,06,04,02,05,8.10
2018,06,04,02,06,6.40
2018,06,04,02,07,8.10
2018,06,04,02,08,8.10
2018,06,04,02,09,8.10
2018,06,04,02,10,4.80
2018,06,04,02,11,4.80
2018,06,04,02,12,9.60
2018,06,04,02,13,11.30
2018,06,04,02,14,8.10
2018,06,04,02,15,6.40
2018,06,04,02,16,8.10
2018,06,04,02,17,9.60
2018,06,04,02,18,6.40
2018,06,04,02,19,8.10
2018,06,04,02,20,6.40
2018,06,04,02,21,4.80
2018,06,04,02,22,3.20
2018,06,04,02,23,3.20
2018,06,04,02,24,1.60
2018,06,04,02,28,1.60
2018,06,04,02,32,3.20
2018,06,04,02,33,3.20
2018,06,04,02,34,4.80
2018,06,04,02,35,4.80
2018,06,04,02,36,6.40
2018,06,04,02,37,6.40
2018,06,04,02,38,6.40
2018,06,04,02,39,6.40
2018,06,04,02,40,6.40
2018,06,04,02,41,6.40
2018,06,04,02,42,6.40
2018,06,04,02,43,6.40
2018,06,04,02,44,6.40
2018,06,04,02,45,6.40
2018,06,04,02,46,4.80
2018,06,04,02,47,4.80
2018,06,04,02,48,4.80
2018,06,04,02,49,4.80
2018,06,04,02,50,4.80
2018,06,04,02,51,4.80
2018,06,04,02,52,4.80
2018,06,04,02,53,4.80
2018,06,04,02,54,4.80
2018,06,04,02,55,4.80
2018,06,04,02,56,6.40
2018,06,04,02,57,4.80
2018,06,04,02,58,6.40
2018,06,04,02,59,6.40
2018,06,04,03,00,4.80
2018,06,04,03,01,9.60
2018,06,04,03,02,8.10
2018,06,04,03,03,6.40
2018,06,04,03,04,6.40
2018,06,04,03,05,6.40
2018,06,04,03,06,4.80
2018,06,04,03,07,6.40
2018,06,04,03,08,9.60
2018,06,04,03,09,6.40
2018,06,04,03,10,9.60
2018,06,04,03,11,6.40
2018,06,04,03,12,6.40
2018,06,04,03,13,6.40
2018,06,04,03,14,6.40
2018,06,04,03,15,8.10
2018,06,04,03,16,8.10
2018,06,04,03,17,8.10
2018,06,04,03,18,6.40
2018,06,04,03,19,4.80
2018,06,04,03,20,3.20
2018,06,04,03,21,4.80
2018,06,04,03,22,3.20
2018,06,04,03,23,1.60
2018,06,04,03,49,3.20
2018,06,04,03,50,3.20
2018,06,04,03,52,1.60
2018,06,04,04,09,4.80
2018,06,04,04,10,3.20
2018,06,04,04,11,1.60
2018,06,04,04,17,4.80
2018,06,04,04,18,4.80
2018,06,04,04,19,3.20
2018,06,04,04,20,4.80
2018,06,04,04,21,6.40
2018,06,04,04,22,6.40
2018,06,04,04,23,4.80
2018,06,04,04,24,4.80
2018,06,04,04,25,4.80
2018,06,04,04,26,4.80
2018,06,04,04,27,3.20
2018,06,04,04,28,4.80
2018,06,04,04,29,3.20
2018,06,04,04,30,3.20
2018,06,04,04,31,3.20
2018,06,04,04,37,4.80
2018,06,04,04,38,6.40
2018,06,04,04,39,4.80
2018,06,04,04,40,4.80
2018,06,04,04,41,3.20
2018,06,04,04,42,3.20
2018,06,04,04,43,3.20
2018,06,04,04,48,6.40
2018,06,04,04,49,4.80
2018,06,04,04,50,4.80
2018,06,04,04,51,4.80
2018,06,04,04,52,4.80
2018,06,04,04,53,4.80
2018,06,04,04,54,6.40
2018,06,04,04,55,6.40
2018,06,04,04,56,4.80
2018,06,04,04,57,4.80
2018,06,04,04,58,4.80
2018,06,04,04,59,4.80
2018,06,04,05,00,6.40
2018,06,04,05,01,4.80
2018,06,04,05,02,4.80
2018,06,04,05,03,4.80
2018,06,04,05,04,4.80
2018,06,04,05,05,4.80
2018,06,04,05,06,4.80
2018,06,04,05,07,4.80
2018,06,04,05,08,4.80
2018,06,04,05,09,6.40
2018,06,04,05,10,4.80
2018,06,04,05,11,6.40
2018,06,04,05,12,4.80
2018,06,04,05,13,4.80
2018,06,04,05,14,4.80
2018,06,04,05,15,6.40
2018,06,04,05,16,6.40
2018,06,04,05,17,6.40
2018,06,04,05,18,4.80
2018,06,04,05,19,3.20
2018,06,04,05,20,6.40
2018,06,04,05,21,8.10
2018,06,04,05,22,6.40
2018,06,04,05,23,4.80
2018,06,04,05,24,4.80
2018,06,04,05,25,4.80
2018,06,04,05,26,4.80
2018,06,04,05,27,4.80
2018,06,04,05,28,4.80
2018,06,04,05,29,6.40
2018,06,04,05,30,4.80
2018,06,04,05,31,6.40
2018,06,04,05,32,6.40
2018,06,04,05,33,6.40
2018,06,04,05,34,6.40
2018,06,04,05,35,6.40
2018,06,04,05,36,6.40
2018,06,04,05,37,6.40
2018,06,04,05,38,4.80
2018,06,04,05,39,4.80
2018,06,04,05,40,4.80
2018,06,04,05,41,4.80
2018,06,04,05,42,4.80
2018,06,04,05,43,3.20
2018,06,04,05,44,1.60
2018,06,04,05,48,6.40
2018,06,04,05,49,6.40
2018,06,04,05,50,4.80
2018,06,04,05,51,4.80
2018,06,04,05,52,4.80
2018,06,04,05,53,3.20
2018,06,04,05,54,4.80
2018,06,04,05,55,3.20
2018,06,04,05,56,3.20
2018,06,04,05,57,4.80
2018,06,04,05,58,3.20
2018,06,04,05,59,4.80
2018,06,04,06,00,4.80
2018,06,04,06,01,4.80
2018,06,04,06,02,4.80
2018,06,04,06,03,4.80
2018,06,04,06,04,4.80
2018,06,04,06,05,4.80
2018,06,04,06,06,4.80
2018,06,04,06,07,6.40
2018,06,04,06,08,4.80
2018,06,04,06,09,4.80
2018,06,04,06,10,3.20
2018,06,04,06,11,4.80
2018,06,04,06,12,3.20
2018,06,04,06,13,3.20
2018,06,04,06,14,3.20
2018,06,04,06,15,1.60
2018,06,04,06,16,1.60
2018,06,04,06,18,1.60
2018,06,04,06,23,3.20
2018,06,04,06,24,3.20
2018,06,04,06,25,4.80
2018,06,04,06,26,6.40
2018,06,04,06,27,4.80
2018,06,04,06,28,4.80
2018,06,04,06,29,4.80
2018,06,04,06,30,4.80
2018,06,04,06,31,4.80
2018,06,04,06,32,3.20
2018,06,04,06,33,3.20
2018,06,04,06,34,4.80
2018,06,04,06,35,4.80
2018,06,04,06,36,4.80
2018,06,04,06,37,4.80
2018,06,04,06,38,6.40
2018,06,04,06,39,6.40
2018,06,04,06,40,6.40
2018,06,04,06,41,6.40
2018,06,04,06,42,6.40
2018,06,04,06,43,9.60
2018,06,04,06,44,8.10
2018,06,04,06,45,6.40
2018,06,04,06,46,4.80
2018,06,04,06,47,4.80
2018,06,04,06,48,6.40
2018,06,04,06,49,6.40
2018,06,04,06,50,6.40
2018,06,04,06,51,8.10
2018,06,04,06,52,6.40
2018,06,04,06,53,6.40
2018,06,04,06,54,9.60
2018,06,04,06,55,4.80
2018,06,04,06,56,6.40
2018,06,04,06,57,6.40
2018,06,04,06,58,4.80
2018,06,04,06,59,4.80
2018,06,04,07,00,4.80
2018,06,04,07,01,4.80
2018,06,04,07,02,4.80
2018,06,04,07,03,4.80
2018,06,04,07,04,3.20
2018,06,04,07,05,4.80
2018,06,04,07,06,4.80
2018,06,04,07,07,6.40
2018,06,04,07,08,4.80
2018,06,04,07,09,4.80
2018,06,04,07,10,4.80
2018,06,04,07,11,4.80
2018,06,04,07,12,3.20
2018,06,04,07,13,3.20
2018,06,04,07,16,1.60
2018,06,04,07,45,3.20
2018,06,04,07,46,6.40
2018,06,04,07,47,6.40
2018,06,04,07,48,6.40
2018,06,04,07,49,3.20
2018,06,04,07,50,6.40
2018,06,04,07,51,6.40
2018,06,04,07,52,6.40
2018,06,04,07,53,6.40
2018,06,04,07,56,4.80
2018,06,04,07,57,4.80
2018,06,04,07,58,6.40
2018,06,04,07,59,4.80
2018,06,04,08,00,4.80
2018,06,04,08,01,4.80
2018,06,04,08,02,6.40
2018,06,04,08,03,6.40
2018,06,04,08,04,3.20
2018,06,04,08,05,4.80
2018,06,04,08,06,4.80
2018,06,04,08,07,3.20
2018,06,04,08,08,3.20
2018,06,04,08,10,6.40
2018,06,04,08,11,4.80
2018,06,04,08,12,4.80
2018,06,04,08,13,8.10
2018,06,04,08,14,9.60
2018,06,04,08,15,8.10
2018,06,04,08,16,6.40
2018,06,04,08,17,4.80
2018,06,04,08,18,4.80
2018,06,04,08,19,1.60
2018,06,04,08,20,3.20
2018,06,04,08,22,1.60
2018,06,04,08,23,3.20
2018,06,04,08,24,3.20
2018,06,04,08,25,3.20
2018,06,04,08,32,6.40
2018,06,04,08,33,4.80
2018,06,04,08,34,3.20
2018,06,04,08,35,4.80
2018,06,04,08,36,4.80
2018,06,04,08,37,4.80
2018,06,04,08,38,4.80
2018,06,04,08,39,6.40
2018,06,04,08,40,6.40
2018,06,04,08,41,6.40
2018,06,04,08,42,6.40
2018,06,04,08,43,6.40
2018,06,04,08,44,6.40
2018,06,04,08,45,4.80
2018,06,04,08,46,6.40
2018,06,04,08,47,8.10
2018,06,04,08,48,6.40
2018,06,04,08,49,6.40
2018,06,04,08,50,6.40
2018,06,04,08,51,4.80
2018,06,04,08,52,4.80
2018,06,04,08,53,6.40
2018,06,04,08,54,6.40
2018,06,04,08,55,8.10
2018,06,04,08,56,6.40
2018,06,04,08,57,6.40
2018,06,04,08,58,8.10
2018,06,04,08,59,4.80
2018,06,04,09,00,6.40
2018,06,04,09,01,4.80
2018,06,04,09,02,4.80
2018,06,04,09,03,4.80
2018,06,04,09,04,8.10
2018,06,04,09,05,6.40
2018,06,04,09,06,4.80
2018,06,04,09,07,4.80
2018,06,04,09,08,4.80
2018,06,04,09,09,4.80
2018,06,04,09,10,4.80
2018,06,04,09,11,3.20
2018,06,04,09,12,4.80
2018,06,04,09,13,4.80
2018,06,04,09,14,6.40
2018,06,04,09,15,4.80
2018,06,04,09,16,6.40
2018,06,04,09,17,8.10
2018,06,04,09,18,6.40
2018,06,04,09,19,8.10
2018,06,04,09,20,8.10
2018,06,04,09,21,8.10
2018,06,04,09,22,6.40
2018,06,04,09,23,6.40
2018,06,04,09,24,8.10
2018,06,04,09,25,6.40
2018,06,04,09,26,6.40
2018,06,04,09,27,6.40
2018,06,04,09,28,6.40
2018,06,04,09,29,4.80
2018,06,04,09,30,6.40
2018,06,04,09,31,6.40
2018,06,04,09,32,6.40
2018,06,04,09,33,8.10
2018,06,04,09,34,8.10
2018,06,04,09,35,4.80
2018,06,04,09,36,8.10
2018,06,04,09,37,11.30
2018,06,04,09,38,11.30
2018,06,04,09,39,9.60
2018,06,04,09,40,11.30
2018,06,04,09,41,12.90
2018,06,04,09,42,8.10
2018,06,04,09,43,8.10
2018,06,04,09,44,6.40
2018,06,04,09,45,11.30
2018,06,04,09,46,12.90
2018,06,04,09,47,11.30
2018,06,04,09,48,11.30
2018,06,04,09,49,12.90
2018,06,04,09,50,6.40
2018,06,04,09,51,11.30
2018,06,04,09,52,9.60
2018,06,04,09,53,6.40
2018,06,04,09,54,6.40
2018,06,04,09,55,9.60
2018,06,04,09,56,11.30
2018,06,04,09,57,9.60
2018,06,04,09,58,8.10
2018,06,04,09,59,6.40
2018,06,04,10,00,6.40
2018,06,04,10,01,6.40
2018,06,04,10,02,9.60
2018,06,04,10,03,9.60
2018,06,04,10,04,8.10
2018,06,04,10,05,11.30
2018,06,04,10,06,6.40
2018,06,04,10,07,12.90
2018,06,04,10,08,9.60
2018,06,04,10,09,9.60
2018,06,04,10,10,8.10
2018,06,04,10,11,11.30
2018,06,04,10,12,11.30
2018,06,04,10,13,11.30
2018,06,04,10,14,11.30
2018,06,04,10,15,8.10
2018,06,04,10,16,8.10
2018,06,04,10,17,9.60
2018,06,04,10,18,12.90
2018,06,04,10,19,11.30
2018,06,04,10,20,11.30
2018,06,04,10,21,12.90
2018,06,04,10,22,14.50
2018,06,04,10,23,12.90
2018,06,04,10,24,16.10
2018,06,04,10,25,14.50
2018,06,04,10,26,14.50
2018,06,04,10,27,11.30
2018,06,04,10,28,16.10
2018,06,04,10,29,17.70
2018,06,04,10,30,14.50
2018,06,04,10,31,12.90
2018,06,04,10,32,14.50
2018,06,04,10,33,14.50
2018,06,04,10,34,14.50
2018,06,04,10,35,12.90
2018,06,04,10,36,16.10
2018,06,04,10,37,9.60
2018,06,04,10,38,17.70
2018,06,04,10,39,17.70
2018,06,04,10,40,16.10
2018,06,04,10,41,16.10
2018,06,04,10,42,16.10
2018,06,04,10,43,16.10
2018,06,04,10,44,16.10
2018,06,04,10,45,16.10
2018,06,04,10,46,16.10
2018,06,04,10,47,16.10
2018,06,04,10,48,16.10
2018,06,04,10,49,16.10
2018,06,04,10,50,17.70
2018,06,04,10,51,14.50
2018,06,04,10,52,17.70
2018,06,04,10,53,17.70
2018,06,04,10,54,17.70
2018,06,04,10,55,16.10
2018,06,04,10,56,17.70
2018,06,04,10,57,19.30
2018,06,04,10,58,17.70
2018,06,04,10,59,19.30
2018,06,04,11,00,20.90
2018,06,04,11,01,14.50
2018,06,04,11,02,16.10
2018,06,04,11,03,22.50
2018,06,04,11,04,19.30
2018,06,04,11,05,16.10
2018,06,04,11,06,12.90
2018,06,04,11,07,16.10
2018,06,04,11,08,17.70
2018,06,04,11,09,17.70
2018,06,04,11,10,19.30
2018,06,04,11,11,14.50
2018,06,04,11,12,17.70
2018,06,04,11,13,19.30
2018,06,04,11,14,17.70
2018,06,04,11,15,22.50
2018,06,04,11,16,22.50
2018,06,04,11,17,14.50
2018,06,04,11,18,19.30
2018,06,04,11,19,20.90
2018,06,04,11,20,20.90
2018,06,04,11,21,16.10
2018,06,04,11,22,19.30
2018,06,04,11,23,16.10
2018,06,04,11,24,20.90
2018,06,04,11,25,20.90
2018,06,04,11,26,20.90
2018,06,04,11,27,16.10
2018,06,04,11,28,12.90
2018,06,04,11,29,16.10
2018,06,04,11,30,16.10
2018,06,04,11,31,12.90
2018,06,04,11,32,14.50
2018,06,04,11,33,14.50
2018,06,04,11,34,19.30
2018,06,04,11,35,16.10
2018,06,04,11,36,16.10
2018,06,04,11,37,16.10
2018,06,04,11,38,14.50
2018,06,04,11,39,12.90
2018,06,04,11,40,16.10
2018,06,04,11,41,9.60
2018,06,04,11,42,16.10
2018,06,04,11,43,14.50
2018,06,04,11,44,17.70
2018,06,04,11,45,16.10
2018,06,04,11,46,17.70
2018,06,04,11,47,16.10
2018,06,04,11,48,16.10
2018,06,04,11,49,14.50
2018,06,04,11,50,14.50
2018,06,04,11,51,12.90
2018,06,04,11,52,14.50
2018,06,04,11,53,11.30
2018,06,04,11,54,12.90
2018,06,04,11,55,12.90
2018,06,04,11,56,14.50
2018,06,04,11,57,12.90
2018,06,04,11,58,11.30
2018,06,04,11,59,12.90
2018,06,04,12,00,16.10
2018,06,04,12,01,17.70
2018,06,04,12,02,17.70
2018,06,04,12,03,17.70
2018,06,04,12,04,12.90
2018,06,04,12,05,11.30
2018,06,04,12,06,11.30
2018,06,04,12,07,11.30
2018,06,04,12,08,9.60
2018,06,04,12,09,12.90
2018,06,04,12,10,12.90
2018,06,04,12,11,14.50
2018,06,04,12,12,16.10
2018,06,04,12,13,16.10
2018,06,04,12,14,14.50
2018,06,04,12,15,12.90
2018,06,04,12,16,12.90
2018,06,04,12,17,12.90
2018,06,04,12,18,9.60
2018,06,04,12,19,8.10
2018,06,04,12,20,9.60
2018,06,04,12,21,6.40
2018,06,04,12,22,6.40
2018,06,04,12,23,11.30
2018,06,04,12,24,11.30
2018,06,04,12,25,9.60
2018,06,04,12,26,11.30
2018,06,04,12,27,11.30
2018,06,04,12,28,12.90
2018,06,04,12,29,12.90
2018,06,04,12,30,11.30
2018,06,04,12,31,11.30
2018,06,04,12,32,11.30
2018,06,04,12,33,9.60
2018,06,04,12,34,8.10
2018,06,04,12,35,6.40
2018,06,04,12,36,11.30
2018,06,04,12,37,12.90
2018,06,04,12,38,11.30
2018,06,04,12,39,8.10
2018,06,04,12,40,14.50
2018,06,04,12,41,12.90
2018,06,04,12,42,12.90
2018,06,04,12,43,12.90
2018,06,04,12,44,16.10
2018,06,04,12,45,12.90
2018,06,04,12,46,14.50
2018,06,04,12,47,14.50
2018,06,04,12,48,11.30
2018,06,04,12,49,12.90
2018,06,04,12,50,11.30
2018,06,04,12,51,11.30
2018,06,04,12,52,9.60
2018,06,04,12,53,11.30
2018,06,04,12,54,6.40
2018,06,04,12,55,12.90
2018,06,04,12,56,9.60
2018,06,04,12,57,6.40
2018,06,04,12,58,8.10
2018,06,04,12,59,16.10
2018,06,04,13,00,17.70
2018,06,04,13,01,14.50
2018,06,04,13,02,16.10
2018,06,04,13,03,17.70
2018,06,04,13,04,19.30
2018,06,04,13,05,24.20
2018,06,04,13,06,20.90
2018,06,04,13,07,20.90
2018,06,04,13,08,19.30
2018,06,04,13,09,19.30
2018,06,04,13,10,17.70
2018,06,04,13,11,16.10
2018,06,04,13,12,14.50
2018,06,04,13,13,12.90
2018,06,04,13,14,17.70
2018,06,04,13,15,14.50
2018,06,04,13,16,14.50
2018,06,04,13,17,16.10
2018,06,04,13,18,12.90
2018,06,04,13,19,12.90
2018,06,04,13,20,12.90
2018,06,04,13,21,17.70
2018,06,04,13,22,20.90
2018,06,04,13,23,22.50
2018,06,04,13,24,17.70
2018,06,04,13,25,20.90
2018,06,04,13,26,17.70
2018,06,04,13,27,24.20
2018,06,04,13,28,24.20
2018,06,04,13,29,22.50
2018,06,04,13,30,29.00
2018,06,04,13,31,24.20
2018,06,04,13,32,25.70
2018,06,04,13,33,20.90
2018,06,04,13,34,17.70
2018,06,04,13,35,16.10
2018,06,04,13,36,25.70
2018,06,04,13,37,32.20
2018,06,04,13,38,19.30
2018,06,04,13,39,17.70
2018,06,04,13,40,24.20
2018,06,04,13,41,27.40
2018,06,04,13,42,14.50
2018,06,04,13,43,20.90
2018,06,04,13,44,25.70
2018,06,04,13,45,22.50
2018,06,04,13,46,24.20
2018,06,04,13,47,29.00
2018,06,04,13,48,29.00
2018,06,04,13,49,17.70
2018,06,04,13,50,19.30
2018,06,04,13,51,22.50
2018,06,04,13,52,25.70
2018,06,04,13,53,19.30
2018,06,04,13,54,20.90
2018,06,04,13,55,19.30
2018,06,04,13,56,14.50
2018,06,04,13,57,14.50
2018,06,04,13,58,20.90
2018,06,04,13,59,24.20
2018,06,04,14,00,25.70
2018,06,04,14,01,22.50
2018,06,04,14,02,16.10
2018,06,04,14,03,19.30
2018,06,04,14,04,16.10
2018,06,04,14,05,17.70
2018,06,04,14,06,17.70
2018,06,04,14,07,17.70
2018,06,04,14,08,17.70
2018,06,04,14,09,19.30
2018,06,04,14,10,19.30
2018,06,04,14,11,17.70
2018,06,04,14,12,20.90
2018,06,04,14,13,16.10
2018,06,04,14,14,20.90
2018,06,04,14,15,16.10
2018,06,04,14,16,17.70
2018,06,04,14,17,17.70
2018,06,04,14,18,17.70
2018,06,04,14,19,16.10
2018,06,04,14,20,14.50
2018,06,04,14,21,16.10
2018,06,04,14,22,14.50
2018,06,04,14,23,17.70
2018,06,04,14,24,12.90
2018,06,04,14,25,16.10
2018,06,04,14,26,16.10
2018,06,04,14,27,12.90
2018,06,04,14,28,16.10
2018,06,04,14,29,17.70
2018,06,04,14,30,14.50
2018,06,04,14,31,17.70
2018,06,04,14,32,20.90
2018,06,04,14,33,20.90
2018,06,04,14,34,19.30
2018,06,04,14,35,20.90
2018,06,04,14,36,20.90
2018,06,04,14,37,16.10
2018,06,04,14,38,20.90
2018,06,04,14,39,17.70
2018,06,04,14,40,20.90
2018,06,04,14,41,19.30
2018,06,04,14,42,19.30
2018,06,04,14,43,16.10
2018,06,04,14,44,20.90
2018,06,04,14,45,17.70
2018,06,04,14,46,16.10
2018,06,04,14,47,17.70
2018,06,04,14,48,16.10
2018,06,04,14,49,17.70
2018,06,04,14,50,14.50
2018,06,04,14,51,17.70
2018,06,04,14,52,17.70
2018,06,04,14,53,16.10
2018,06,04,14,54,14.50
2018,06,04,14,55,16.10
2018,06,04,14,56,19.30
2018,06,04,14,57,20.90
2018,06,04,14,58,16.10
2018,06,04,14,59,25.70
2018,06,04,15,00,20.90
2018,06,04,15,01,17.70
2018,06,04,15,02,16.10
2018,06,04,15,03,19.30
2018,06,04,15,04,16.10
2018,06,04,15,05,16.10
2018,06,04,15,06,16.10
2018,06,04,15,07,17.70
2018,06,04,15,08,14.50
2018,06,04,15,09,19.30
2018,06,04,15,10,24.20
2018,06,04,15,11,22.50
2018,06,04,15,12,22.50
2018,06,04,15,13,22.50
2018,06,04,15,14,16.10
2018,06,04,15,15,16.10
2018,06,04,15,16,22.50
2018,06,04,15,17,22.50
2018,06,04,15,18,19.30
2018,06,04,15,19,20.90
2018,06,04,15,20,16.10
2018,06,04,15,21,19.30
2018,06,04,15,22,22.50
2018,06,04,15,23,16.10
2018,06,04,15,24,17.70
2018,06,04,15,25,17.70
2018,06,04,15,26,20.90
2018,06,04,15,27,17.70
2018,06,04,15,28,17.70
2018,06,04,15,29,20.90
2018,06,04,15,30,20.90
2018,06,04,15,31,22.50
2018,06,04,15,32,22.50
2018,06,04,15,33,19.30
2018,06,04,15,34,22.50
2018,06,04,15,35,20.90
2018,06,04,15,36,24.20
2018,06,04,15,37,24.20
2018,06,04,15,38,22.50
2018,06,04,15,39,19.30
2018,06,04,15,40,20.90
2018,06,04,15,41,22.50
2018,06,04,15,42,20.90
2018,06,04,15,43,19.30
2018,06,04,15,44,20.90
2018,06,04,15,45,20.90
2018,06,04,15,46,17.70
2018,06,04,15,47,14.50
2018,06,04,15,48,17.70
2018,06,04,15,49,22.50
2018,06,04,15,50,22.50
2018,06,04,15,51,17.70
2018,06,04,15,52,16.10
2018,06,04,15,53,20.90
2018,06,04,15,54,20.90
2018,06,04,15,55,22.50
2018,06,04,15,56,20.90
2018,06,04,15,57,19.30
2018,06,04,15,58,19.30
2018,06,04,15,59,16.10
2018,06,04,16,00,19.30
2018,06,04,16,01,16.10
2018,06,04,16,02,20.90
2018,06,04,16,03,20.90
2018,06,04,16,04,16.10
2018,06,04,16,05,16.10
2018,06,04,16,06,12.90
2018,06,04,16,07,16.10
2018,06,04,16,08,17.70
2018,06,04,16,09,16.10
2018,06,04,16,10,14.50
2018,06,04,16,11,14.50
2018,06,04,16,12,16.10
2018,06,04,16,13,16.10
2018,06,04,16,14,8.10
2018,06,04,16,15,9.60
2018,06,04,16,16,11.30
2018,06,04,16,17,12.90
2018,06,04,16,18,12.90
2018,06,04,16,19,17.70
2018,06,04,16,20,16.10
2018,06,04,16,21,12.90
2018,06,04,16,22,12.90
2018,06,04,16,23,14.50
2018,06,04,16,24,16.10
2018,06,04,16,25,11.30
2018,06,04,16,26,9.60
2018,06,04,16,27,8.10
2018,06,04,16,28,11.30
2018,06,04,16,29,9.60
2018,06,04,16,30,11.30
2018,06,04,16,31,11.30
2018,06,04,16,32,11.30
2018,06,04,16,33,11.30
2018,06,04,16,34,3.20
2018,06,04,16,35,4.80
2018,06,04,16,36,1.60
2018,06,04,16,37,1.60
2018,06,04,16,38,1.60
2018,06,04,16,39,1.60
2018,06,04,16,40,4.80
2018,06,04,16,41,6.40
2018,06,04,16,42,8.10
2018,06,04,16,43,11.30
2018,06,04,16,44,11.30
2018,06,04,16,45,8.10
2018,06,04,16,46,9.60
2018,06,04,16,47,8.10
2018,06,04,16,48,12.90
2018,06,04,16,49,11.30
2018,06,04,16,50,11.30
2018,06,04,16,51,9.60
2018,06,04,16,52,9.60
2018,06,04,16,53,12.90
2018,06,04,16,54,17.70
2018,06,04,16,55,14.50
2018,06,04,16,56,4.80
2018,06,04,16,58,3.20
2018,06,04,16,59,6.40
2018,06,04,17,00,6.40
2018,06,04,17,01,9.60
2018,06,04,17,02,8.10
2018,06,04,17,03,8.10
2018,06,04,17,04,8.10
2018,06,04,17,05,9.60
2018,06,04,17,06,6.40
2018,06,04,17,07,9.60
2018,06,04,17,08,9.60
2018,06,04,17,09,12.90
2018,06,04,17,10,16.10
2018,06,04,17,11,12.90
2018,06,04,17,12,9.60
2018,06,04,17,13,9.60
2018,06,04,17,14,12.90
2018,06,04,17,15,12.90
2018,06,04,17,16,11.30
2018,06,04,17,17,11.30
2018,06,04,17,18,12.90
2018,06,04,17,19,11.30
2018,06,04,17,20,8.10
2018,06,04,17,21,8.10
2018,06,04,17,22,9.60
2018,06,04,17,23,11.30
2018,06,04,17,24,8.10
2018,06,04,17,25,4.80
2018,06,04,17,27,1.60
2018,06,04,17,28,6.40
2018,06,04,17,29,8.10
2018,06,04,17,30,8.10
2018,06,04,17,31,8.10
2018,06,04,17,32,8.10
2018,06,04,17,33,6.40
2018,06,04,17,34,9.60
2018,06,04,17,35,9.60
2018,06,04,17,36,8.10
2018,06,04,17,37,11.30
2018,06,04,17,38,6.40
2018,06,04,17,39,4.80
2018,06,04,17,40,6.40
2018,06,04,17,41,6.40
2018,06,04,17,42,6.40
2018,06,04,17,43,11.30
2018,06,04,17,44,9.60
2018,06,04,17,45,8.10
2018,06,04,17,46,6.40
2018,06,04,17,47,6.40
2018,06,04,17,48,6.40
2018,06,04,17,49,8.10
2018,06,04,17,50,1.60
2018,06,04,17,54,6.40
2018,06,04,17,55,9.60
2018,06,04,17,56,9.60
2018,06,04,17,57,8.10
2018,06,04,17,58,11.30
2018,06,04,17,59,8.10
2018,06,04,18,00,4.80
2018,06,04,18,01,6.40
2018,06,04,18,02,4.80
2018,06,04,18,03,6.40
2018,06,04,18,04,4.80
2018,06,04,18,05,6.40
2018,06,04,18,06,6.40
2018,06,04,18,07,4.80
2018,06,04,18,08,6.40
2018,06,04,18,09,6.40
2018,06,04,18,10,6.40
2018,06,04,18,11,9.60
2018,06,04,18,12,11.30
2018,06,04,18,13,11.30
2018,06,04,18,14,14.50
2018,06,04,18,15,12.90
2018,06,04,18,16,11.30
2018,06,04,18,17,11.30
2018,06,04,18,18,8.10
2018,06,04,18,19,6.40
2018,06,04,18,20,11.30
2018,06,04,18,21,11.30
2018,06,04,18,22,11.30
2018,06,04,18,23,8.10
2018,06,04,18,24,8.10
2018,06,04,18,25,8.10
2018,06,04,18,26,11.30
2018,06,04,18,27,11.30
2018,06,04,18,28,11.30
2018,06,04,18,29,8.10
2018,06,04,18,30,11.30
2018,06,04,18,31,11.30
2018,06,04,18,32,11.30
2018,06,04,18,33,11.30
2018,06,04,18,34,11.30
2018,06,04,18,35,11.30
2018,06,04,18,36,11.30
2018,06,04,18,37,6.40
2018,06,04,18,38,8.10
2018,06,04,18,39,8.10
2018,06,04,18,40,11.30
2018,06,04,18,41,14.50
2018,06,04,18,42,12.90
2018,06,04,18,43,11.30
2018,06,04,18,44,11.30
2018,06,04,18,45,14.50
2018,06,04,18,46,14.50
2018,06,04,18,47,14.50
2018,06,04,18,48,11.30
2018,06,04,18,49,12.90
2018,06,04,18,50,4.80
2018,06,04,18,51,11.30
2018,06,04,18,52,11.30
2018,06,04,18,53,12.90
2018,06,04,18,54,6.40
2018,06,04,18,55,11.30
2018,06,04,18,56,11.30
2018,06,04,18,57,8.10
2018,06,04,18,58,4.80
2018,06,04,18,59,6.40
2018,06,04,19,00,4.80
2018,06,04,19,01,6.40
2018,06,04,19,02,4.80
2018,06,04,19,03,3.20
2018,06,04,19,04,8.10
2018,06,04,19,05,6.40
2018,06,04,19,06,3.20
2018,06,04,19,07,3.20
2018,06,04,19,08,1.60
2018,06,04,19,09,3.20
2018,06,04,19,10,4.80
2018,06,04,19,11,1.60
2018,06,04,19,15,1.60
2018,06,04,19,16,4.80
2018,06,04,19,17,4.80
2018,06,04,19,18,4.80
2018,06,04,19,20,3.20
2018,06,04,19,23,1.60
2018,06,04,19,24,1.60
2018,06,04,19,25,4.80
2018,06,04,19,26,3.20
2018,06,04,19,27,6.40
2018,06,04,19,28,8.10
2018,06,04,19,29,8.10
2018,06,04,19,30,9.60
2018,06,04,19,31,11.30
2018,06,04,19,32,8.10
2018,06,04,19,33,6.40
2018,06,04,19,34,4.80
2018,06,04,19,35,6.40
2018,06,04,19,36,4.80
2018,06,04,19,37,6.40
2018,06,04,19,38,8.10
2018,06,04,19,39,12.90
2018,06,04,19,40,14.50
2018,06,04,19,41,9.60
2018,06,04,19,42,6.40
2018,06,04,19,43,12.90
2018,06,04,19,44,17.70
2018,06,04,19,45,17.70
2018,06,04,19,46,14.50
2018,06,04,19,47,12.90
2018,06,04,19,48,14.50
2018,06,04,19,49,14.50
2018,06,04,19,50,16.10
2018,06,04,19,51,16.10
2018,06,04,19,52,14.50
2018,06,04,19,53,14.50
2018,06,04,19,54,12.90
2018,06,04,19,55,12.90
2018,06,04,19,56,11.30
2018,06,04,19,57,8.10
2018,06,04,19,58,8.10
2018,06,04,19,59,12.90
2018,06,04,20,00,8.10
2018,06,04,20,01,12.90
2018,06,04,20,02,14.50
2018,06,04,20,03,11.30
2018,06,04,20,04,6.40
2018,06,04,20,05,11.30
2018,06,04,20,06,8.10
2018,06,04,20,07,11.30
2018,06,04,20,08,8.10
2018,06,04,20,09,12.90
2018,06,04,20,10,11.30
2018,06,04,20,11,12.90
2018,06,04,20,12,9.60
2018,06,04,20,13,11.30
2018,06,04,20,14,11.30
2018,06,04,20,15,12.90
2018,06,04,20,16,11.30
2018,06,04,20,17,14.50
2018,06,04,20,18,12.90
2018,06,04,20,19,11.30
2018,06,04,20,20,14.50
2018,06,04,20,21,14.50
2018,06,04,20,22,14.50
2018,06,04,20,23,12.90
2018,06,04,20,24,14.50
2018,06,04,20,25,12.90
2018,06,04,20,26,14.50
2018,06,04,20,27,14.50
2018,06,04,20,28,11.30
2018,06,04,20,29,12.90
2018,06,04,20,30,11.30
2018,06,04,20,31,14.50
2018,06,04,20,32,14.50
2018,06,04,20,33,14.50
2018,06,04,20,34,14.50
2018,06,04,20,35,14.50
2018,06,04,20,36,16.10
2018,06,04,20,37,12.90
2018,06,04,20,38,11.30
2018,06,04,20,39,11.30
2018,06,04,20,40,12.90
2018,06,04,20,41,12.90
2018,06,04,20,42,11.30
2018,06,04,20,43,14.50
2018,06,04,20,44,11.30
2018,06,04,20,45,14.50
2018,06,04,20,46,12.90
2018,06,04,20,47,12.90
2018,06,04,20,48,11.30
2018,06,04,20,49,12.90
2018,06,04,20,50,12.90
2018,06,04,20,51,6.40
2018,06,04,20,52,12.90
2018,06,04,20,53,12.90
2018,06,04,20,54,14.50
2018,06,04,20,55,14.50
2018,06,04,20,56,12.90
2018,06,04,20,57,11.30
2018,06,04,20,58,11.30
2018,06,04,20,59,9.60
2018,06,04,21,00,11.30
2018,06,04,21,01,6.40
2018,06,04,21,02,9.60
2018,06,04,21,03,8.10
2018,06,04,21,04,9.60
2018,06,04,21,05,11.30
2018,06,04,21,06,9.60
2018,06,04,21,07,8.10
2018,06,04,21,08,6.40
2018,06,04,21,09,6.40
2018,06,04,21,10,4.80
2018,06,04,21,11,3.20
2018,06,04,21,12,12.90
2018,06,04,21,13,9.60
2018,06,04,21,14,11.30
2018,06,04,21,15,14.50
2018,06,04,21,16,9.60
2018,06,04,21,17,6.40
2018,06,04,21,18,6.40
2018,06,04,21,19,6.40
2018,06,04,21,20,4.80
2018,06,04,21,21,14.50
2018,06,04,21,22,9.60
2018,06,04,21,23,9.60
2018,06,04,21,24,9.60
2018,06,04,21,25,6.40
2018,06,04,21,26,11.30